Falls City, NE

11:03 AM CST on January 18, 2018 (GMT -0600)
Brenner

Weather History for KFNB - March, 2013

Change the Weather History Date:

Friday, March 15, 2013

  Actual Average Record
Temperature  
Mean Temperature 55 °F -  
Max Temperature 78 °F 53 °F 81 °F (2012)
Min Temperature 32 °F 28 °F 4 °F (1949)
Degree Days  
Heating Degree Days 10    
Growing Degree Days 5 (Base 50)    
Moisture  
Dew Point 36 °F    
Average Humidity 59    
Maximum Humidity 92    
Minimum Humidity 22    
Precipitation  
Precipitation 0.00 in - - ()
Sea Level Pressure  
Sea Level Pressure 29.81 in    
Wind  
Wind Speed 5 mph (NNW)    
Max Wind Speed 16 mph    
Max Gust Speed -    
Visibility 10 miles    
Events      
Averages and records for this station are not official NWS values.
T = Trace of Precipitation, MM = Missing Value Source: NWS Daily Summary

Daily Weather History Graph

Daily Weather History Graph

Search for Another Location

Airport or City:

Trip Planner

Search our weather history database for the weather conditions in past years. The results will help you decide how hot, cold, wet, or windy it might be!

Date:

Astronomy

Mar. 15, 2013 Rise Set
Actual Time 7:33 AM CDT 7:29 PM CDT
Civil Twilight 7:06 AM CDT 7:56 PM CDT
Nautical Twilight 6:34 AM CDT 8:28 PM CDT
Astronomical Twilight 6:03 AM CDT 9:00 PM CDT
Moon 9:24 AM CDT (3/15) 11:44 PM CDT (3/15)
Length of Visible Light 12h 50m
Length of Day
11h 56m
Waxing Crescent, 15% of the Moon is Illuminated
Mar 15
Waxing Crescent
Mar 19
First Quarter
Mar 27
Full
Apr 2
Last Quarter
Apr 10
New

Hourly Weather History & Observations

Time (CDT) Temp. Windchill Dew Point Humidity Pressure Visibility Wind Dir Wind Speed Gust Speed Precip Events Conditions
12:53 AM 37.0 °F - 32.0 °F 82% 30.07 in 10.0 mi Calm Calm - N/A   Clear
1:53 AM 35.1 °F - 32.0 °F 89% 30.05 in 10.0 mi Calm Calm - N/A   Clear
2:53 AM 35.1 °F - 30.9 °F 85% 30.02 in 10.0 mi Calm Calm - N/A   Clear
3:53 AM 32.0 °F - 28.9 °F 88% 30.00 in 9.0 mi Calm Calm - N/A   Clear
4:53 AM 33.1 °F 28.7 °F 30.0 °F 89% 29.96 in 10.0 mi SE 4.6 mph - N/A   Clear
5:53 AM 33.1 °F 27.7 °F 30.9 °F 92% 29.94 in 9.0 mi SE 5.8 mph - N/A   Clear
6:53 AM 34.0 °F 29.8 °F 30.9 °F 89% 29.91 in 10.0 mi SE 4.6 mph - N/A   Clear
7:53 AM 41.0 °F 37.1 °F 34.0 °F 76% 29.88 in 10.0 mi South 5.8 mph - N/A   Clear
8:53 AM 37.9 °F 34.4 °F 35.1 °F 89% 29.86 in 10.0 mi SSE 4.6 mph - N/A   Clear
9:53 AM 55.9 °F - 39.9 °F 55% 29.83 in 10.0 mi SSW 9.2 mph - N/A   Clear
10:53 AM 64.9 °F - 42.1 °F 43% 29.78 in 10.0 mi SSW 10.4 mph - N/A   Clear
11:53 AM 73.0 °F - 39.0 °F 29% 29.76 in 10.0 mi West 15.0 mph - N/A   Clear
12:53 PM 77.0 °F - 37.9 °F 24% 29.74 in 10.0 mi West 16.1 mph - N/A   Clear
1:53 PM 78.1 °F - 37.0 °F 23% 29.72 in 10.0 mi West 13.8 mph - N/A   Clear
2:53 PM 77.0 °F - 37.9 °F 24% 29.70 in 10.0 mi NW 8.1 mph - N/A   Clear
3:53 PM 77.0 °F - 39.0 °F 25% 29.68 in 10.0 mi North 9.2 mph - N/A   Clear
4:53 PM 77.0 °F - 35.1 °F 22% 29.65 in 10.0 mi North 6.9 mph - N/A   Clear
5:53 PM 75.9 °F - 36.0 °F 23% 29.65 in 10.0 mi NNE 6.9 mph - N/A   Clear
6:53 PM 71.1 °F - 39.0 °F 31% 29.66 in 10.0 mi North 6.9 mph - N/A   Clear
7:53 PM 61.0 °F - 41.0 °F 48% 29.67 in 10.0 mi NNE 8.1 mph - N/A   Clear
8:53 PM 55.9 °F - 39.9 °F 55% 29.69 in 10.0 mi North 6.9 mph - N/A   Clear
9:53 PM 53.1 °F - 42.1 °F 66% 29.72 in 10.0 mi North 15.0 mph - N/A   Clear
10:53 PM 48.9 °F - 42.1 °F 77% 29.75 in 10.0 mi North 12.7 mph - N/A   Clear
11:53 PM 45.0 °F 39.3 °F 39.9 °F 82% 29.79 in 7.0 mi North 11.5 mph - N/A   Clear